Back to catalog

ONEWEB-0615

AliveCommunicationsPO
NORAD 54676·PAYLOAD·🇬🇧 United Kingdom

Launched Dec 8, 2022 from Cape Canaveral Space Force Station

Loading…

Next Passes (next 24 hours)

TLE

FreshSource: CelesTrak SupGP

Epoch: Sep 14, 2026, 15:43 UTC

1 54676C 22166AL  26257.65502732 -.00001043  00000+0 -25286-2 0  2578
2 54676  87.9274 226.1773 0002064  76.0220 317.0539 13.21824688    16

Track ONEWEB-0615 in real time with AllMySat

Download on the App Store